Visibility
15.0 15.0 15.0 15.0 15.0 15.0 15.0 15.0 15.0 15.0 15.0 15.0 15.0 15.0 15.0 15.0 15.0 15.0 15.0 15.0 15.0 10.2 15.0 15.0 15.0 10.0 1.0 13.8 15.0 15.0 15.0 15.0 11.6 1.4 11.6 10.8 3.8 6.4 1.4 15.0 13.3 15.0 13.5 0.1 1.1 1.8 12.1 15.0 5.9 12.9 15.0 15.0 15.0 15.0
15.0 15.0 15.0 15.0 15.0 15.0 15.0 15.0 15.0 15.0 15.0 15.0 15.0 15.0 15.0 15.0 15.0 15.0 15.0 15.0 15.0 15.0 8.3 15.0 15.0 15.0 15.0 15.0 15.0 7.9 15.0 15.0 15.0 12.9 0.6 3.7 1.6 0.6 2.3 15.0 5.0 14.3 15.0 15.0 13.4 14.1 15.0 15.0 15.0 15.0 15.0 15.0 15.0 15.0
14.8 15.0 15.0 15.0 15.0 15.0 15.0 15.0 15.0 15.0 15.0 15.0 15.0 15.0 15.0 15.0 15.0 15.0 15.0 15.0 15.0 15.0 15.0 15.0 15.0 15.0 15.0 15.0 15.0 15.0 15.0 15.0 0.3 15.0 15.0 6.5 1.1 15.0 2.4 2.5 8.9 15.0 5.5 15.0 15.0 14.2 15.0 15.0 15.0 15.0 15.0 15.0 15.0 15.0
6.1 7.0 7.2 9.4 12.5 14.8 15.0 15.0 15.0 15.0 15.0 15.0 15.0 15.0 15.0 15.0 15.0 15.0 15.0 15.0 15.0 15.0 15.0 15.0 15.0 15.0 15.0 15.0 15.0 15.0 15.0 15.0 12.6 4.2 4.1 4.1 14.7 15.0 12.7 11.8 10.1 13.4 9.5 15.0 15.0 15.0 15.0 15.0 15.0 15.0 15.0 15.0 15.0 15.0
5.0 5.0 5.5 5.2 5.3 5.7 5.5 11.8 14.5 15.0 15.0 15.0 15.0 15.0 15.0 15.0 15.0 15.0 15.0 15.0 15.0 15.0 15.0 15.0 15.0 15.0 15.0 15.0 15.0 15.0 15.0 15.0 4.9 0.3 0.5 1.5 4.1 3.2 0.9 0.9 1.7 11.8 15.0 15.0 15.0 15.0 15.0 15.0 14.8 15.0 15.0 15.0 15.0 15.0
9.5 6.3 5.7 5.0 5.3 4.8 4.5 5.6 5.5 15.0 15.0 15.0 15.0 15.0 15.0 15.0 15.0 15.0 15.0 15.0 15.0 15.0 15.0 15.0 15.0 15.0 15.0 15.0 15.0 15.0 15.0 9.9 7.5 4.6 4.1 3.8 4.2 14.9 0.5 0.3 15.0 15.0 12.6 15.0 15.0 15.0 15.0 11.2 6.2 15.0 15.0 15.0 15.0 15.0
12.7 13.1 13.9 8.5 7.7 5.8 4.5 4.4 4.0 4.5 9.4 10.5 15.0 15.0 15.0 15.0 15.0 15.0 15.0 15.0 15.0 15.0 15.0 15.0 15.0 15.0 15.0 15.0 15.0 15.0 15.0 14.7 10.6 1.1 1.0 3.5 2.7 1.9 1.2 0.3 15.0 15.0 15.0 15.0 15.0 15.0 15.0 13.0 15.0 15.0 15.0 15.0 15.0 15.0
15.0 15.0 11.8 11.8 15.0 7.2 4.9 5.0 5.2 3.9 3.8 6.6 8.2 9.2 11.0 12.0 15.0 15.0 15.0 15.0 15.0 15.0 15.0 15.0 15.0 15.0 15.0 15.0 15.0 15.0 14.5 5.8 6.7 3.4 1.1 1.5 1.6 0.7 0.6 15.0 15.0 15.0 15.0 12.9 15.0 15.0 15.0 8.0 15.0 15.0 15.0 10.0 15.0 15.0
15.0 15.0 15.0 15.0 8.4 15.0 7.7 14.1 4.4 4.3 3.4 3.8 8.5 9.3 11.1 15.0 2.3 12.8 15.0 6.9 15.0 15.0 13.3 15.0 15.0 15.0 15.0 15.0 15.0 15.0 15.0 3.2 13.1 1.2 4.8 10.6 6.0 5.8 15.0 15.0 15.0 15.0 15.0 15.0 9.3 15.0 12.0 15.0 15.0 12.8 15.0 6.5 15.0 15.0
15.0 15.0 15.0 15.0 15.0 15.0 13.1 10.4 8.2 5.1 3.3 3.1 1.9 0.1 0.0 0.1 15.0 15.0 15.0 1.5 0.1 2.8 14.7 9.4 15.0 15.0 15.0 14.9 7.7 14.8 3.3 5.2 2.2 13.1 1.0 0.6 14.3 15.0 7.0 14.3 15.0 15.0 15.0 15.0 15.0 15.0 15.0 15.0 15.0 15.0 15.0 15.0 15.0 15.0
15.0 15.0 15.0 15.0 15.0 15.0 15.0 8.9 5.5 4.1 2.3 0.1 0.1 0.1 0.1 15.0 11.2 3.0 0.5 0.1 0.2 5.9 12.6 10.4 15.0 15.0 15.0 15.0 15.0 15.0 15.0 5.4 3.8 7.3 4.1 4.9 11.6 5.6 1.7 8.4 15.0 15.0 15.0 15.0 15.0 15.0 15.0 15.0 15.0 15.0 15.0 15.0 15.0 15.0
15.0 15.0 15.0 15.0 15.0 15.0 15.0 14.2 4.5 3.1 2.1 1.7 0.5 0.3 0.1 0.1 0.1 0.1 0.1 0.4 1.6 15.0 15.0 15.0 15.0 15.0 15.0 15.0 15.0 8.3 15.0 1.9 0.1 0.8 1.3 13.5 15.0 1.8 2.1 6.6 15.0 15.0 15.0 15.0 15.0 15.0 15.0 15.0 15.0 15.0 15.0 15.0 15.0 15.0
13.5 15.0 15.0 15.0 15.0 15.0 15.0 15.0 3.7 3.1 1.0 0.1 0.1 0.1 0.3 0.1 0.1 0.1 1.2 1.4 1.7 15.0 9.7 15.0 15.0 15.0 6.5 9.2 5.5 4.2 0.2 0.2 0.7 2.7 14.1 15.0 5.6 2.5 14.5 15.0 15.0 15.0 15.0 15.0 15.0 15.0 15.0 15.0 15.0 15.0 15.0 15.0 15.0 15.0
15.0 14.7 15.0 15.0 15.0 15.0 15.0 15.0 3.2 3.0 0.1 0.1 0.1 0.1 0.6 0.3 3.7 15.0 15.0 15.0 15.0 15.0 15.0 15.0 15.0 15.0 7.3 6.6 3.9 0.5 0.1 0.3 0.2 3.9 15.0 15.0 6.3 11.2 4.5 15.0 15.0 15.0 15.0 15.0 15.0 15.0 15.0 15.0 15.0 15.0 15.0 15.0 15.0 15.0
15.0 15.0 12.8 15.0 15.0 15.0 15.0 14.2 0.7 1.6 0.0 0.1 0.1 0.1 1.6 15.0 7.1 12.2 12.5 15.0 10.0 15.0 15.0 15.0 15.0 11.5 3.1 7.2 0.4 0.1 0.1 0.3 1.5 15.0 15.0 14.4 2.6 3.9 9.6 15.0 15.0 15.0 15.0 15.0 15.0 15.0 15.0 15.0 15.0 15.0 15.0 15.0 15.0 15.0
15.0 15.0 14.8 15.0 15.0 15.0 11.6 5.6 0.2 0.1 0.0 0.1 0.3 1.6 3.4 15.0 0.8 1.6 4.7 3.7 7.6 15.0 7.9 5.9 0.1 0.1 0.2 0.3 0.1 0.5 0.2 7.7 15.0 15.0 7.0 1.0 1.7 3.9 4.9 15.0 15.0 15.0 15.0 15.0 15.0 15.0 15.0 15.0 15.0 15.0 15.0 14.9 15.0 15.0
9.3 3.7 15.0 15.0 15.0 9.4 6.4 0.0 0.0 0.1 0.1 0.1 0.2 7.4 14.9 15.0 14.3 11.4 14.4 5.5 15.0 15.0 2.5 0.1 0.1 1.0 0.1 0.1 0.1 0.2 3.5 7.6 4.5 0.5 1.1 2.6 3.0 2.9 4.0 15.0 15.0 15.0 15.0 15.0 15.0 15.0 15.0 15.0 15.0 15.0 15.0 14.9 15.0 15.0
0.7 6.7 15.0 15.0 10.2 7.2 0.0 0.0 0.1 0.1 0.1 0.1 0.5 1.4 4.7 4.6 15.0 5.4 5.1 15.0 15.0 10.2 0.7 0.1 0.1 0.1 0.3 0.8 13.0 12.6 1.6 0.3 0.6 1.2 0.5 0.2 0.1 0.2 11.0 15.0 15.0 15.0 15.0 15.0 15.0 15.0 15.0 14.5 15.0 15.0 15.0 15.0 15.0 11.5
5.8 8.5 13.1 15.0 5.2 0.0 0.1 0.1 0.0 0.1 0.1 0.2 1.3 4.6 5.4 0.6 1.6 14.4 15.0 14.5 3.7 11.9 0.2 0.1 0.1 0.1 0.2 0.5 1.8 1.6 2.8 4.0 1.2 0.1 0.1 0.1 0.1 3.3 15.0 15.0 15.0 14.4 8.3 4.8 11.9 15.0 15.0 15.0 15.0 15.0 15.0 15.0 15.0 15.0
4.3 9.1 15.0 9.0 11.1 0.1 0.1 0.1 0.1 0.2 0.2 0.1 0.5 0.9 1.3 1.4 0.6 0.4 0.5 0.4 0.3 0.1 0.1 0.1 0.1 0.6 1.8 0.7 0.4 0.1 0.1 0.1 0.1 0.1 0.1 0.1 0.4 5.8 15.0 2.6 3.0 3.9 3.4 4.0 4.1 3.9 2.0 4.7 7.9 15.0 15.0 11.0 4.8 1.6
0.9 0.4 9.0 0.4 0.1 0.1 0.1 0.1 0.1 0.1 0.1 0.2 0.1 0.8 0.2 0.1 0.1 0.1 0.1 0.1 0.1 0.1 0.1 0.2 0.2 0.1 0.1 0.1 0.1 0.1 0.1 0.1 0.1 0.3 0.7 3.6 6.1 4.5 12.9 15.0 4.3 4.9 3.1 3.3 2.4 4.3 1.3 0.6 13.4 0.3 0.3 0.2 0.3 0.1
0.1 8.8 0.1 0.1 0.1 0.1 0.1 0.1 0.3 0.2 0.3 0.1 0.2 0.3 0.1 0.1 0.1 0.1 0.1 0.1 0.1 0.1 0.1 0.1 0.1 0.1 0.1 0.1 0.1 0.1 0.1 0.2 0.7 2.1 1.2 2.4 5.0 3.3 3.2 1.7 2.2 2.3 3.8 2.2 0.9 1.0 2.5 0.9 0.4 0.2 0.2 0.1 0.1 0.1
0.1 0.2 0.2 0.1 0.3 0.3 0.1 0.1 0.2 0.1 0.1 0.1 0.1 0.1 0.1 0.1 0.1 0.1 0.1 0.1 0.1 0.1 0.1 0.1 0.1 0.1 0.1 0.1 0.1 0.2 1.1 13.5 15.0 15.0 3.7 3.3 9.9 2.5 2.7 3.4 1.0 1.0 2.4 7.0 1.4 0.6 0.9 1.2 0.3 0.1 0.2 0.1 0.1 0.1
1.5 0.3 0.1 0.1 0.1 0.1 0.1 0.2 0.3 0.1 0.1 0.1 0.1 0.1 0.1 0.2 0.2 0.1 0.1 0.1 0.1 0.1 0.1 0.1 0.1 0.1 0.1 0.2 3.2 12.7 6.0 4.4 15.0 15.0 5.0 2.6 7.3 15.0 4.9 0.9 0.6 0.5 0.5 0.7 1.0 1.6 2.0 1.1 0.4 0.3 0.2 0.1 0.1 0.2
1.1 0.1 0.1 0.1 0.1 0.1 0.1 0.3 0.1 0.1 0.1 0.1 0.1 0.1 0.1 0.1 0.1 0.1 0.2 0.2 0.1 0.1 0.1 0.1 0.1 1.4 15.0 15.0 15.0 15.0 15.0 2.7 1.7 2.4 13.4 1.4 1.7 14.4 14.9 9.0 1.1 0.9 2.8 14.3 4.9 2.1 1.6 0.9 0.5 0.4 0.3 0.2 0.2 0.2
0.5 0.2 0.5 0.3 0.3 0.6 0.1 0.1 0.1 0.1 0.1 0.1 0.1 0.1 0.1 0.1 0.1 0.1 0.4 0.2 0.1 0.1 1.4 6.9 12.1 15.0 15.0 15.0 3.9 11.8 9.3 1.4 0.8 1.5 12.5 1.1 0.5 0.5 1.2 1.6 3.0 7.1 1.5 0.6 0.5 1.3 2.6 2.4 1.1 0.6 0.5 0.3 0.2 0.1
0.6 0.2 0.2 0.1 0.1 0.1 0.1 0.1 0.1 0.1 0.1 0.1 0.1 0.1 0.1 0.1 0.2 0.5 0.3 0.5 9.0 14.8 15.0 5.8 4.2 4.0 6.8 8.6 14.4 15.0 12.6 3.8 1.8 4.3 9.1 4.6 6.7 0.8 0.9 1.2 1.7 4.9 2.1 0.8 1.1 1.1 0.8 1.9 1.3 1.0 0.6 0.6 0.4 0.3
0.1 0.1 0.1 0.1 0.1 0.1 0.1 0.1 0.1 0.1 0.1 0.1 0.1 0.2 0.2 0.3 0.4 0.4 4.6 6.1 11.2 5.7 4.0 4.1 2.5 4.9 5.6 13.5 11.2 7.5 15.0 14.5 15.0 15.0 15.0 7.0 2.4 1.3 0.6 0.5 0.5 0.4 0.4 0.7 0.4 0.6 0.7 0.8 0.7 0.7 0.7 1.0 0.8 0.4
0.3 1.8 15.0 15.0 15.0 15.0 1.2 1.2 0.5 0.3 0.2 0.3 2.1 2.8 7.0 6.9 11.4 15.0 12.1 13.7 4.1 9.8 12.0 15.0 15.0 13.6 15.0 15.0 15.0 10.1 8.7 5.9 4.1 4.7 4.1 4.3 14.1 14.8 1.0 3.2 15.0 13.6 2.8 2.1 1.1 0.2 0.3 0.2 0.3 1.6 1.7 3.6 4.5 1.4
13.3 9.0 15.0 15.0 8.3 1.4 0.5 0.5 1.1 0.8 0.9 1.1 2.0 11.3 15.0 15.0 15.0 9.0 13.1 5.2 4.4 9.4 10.0 5.1 4.2 4.1 7.2 4.0 11.0 15.0 15.0 15.0 4.3 3.5 1.5 2.4 6.2 15.0 15.0 15.0 15.0 15.0 14.2 5.3 3.9 6.2 1.4 1.0 3.4 3.4 0.7 0.6 1.5 2.0
13.9 15.0 15.0 12.5 2.1 1.2 0.9 1.1 1.6 3.1 2.4 4.4 3.1 13.3 9.0 7.5 15.0 5.9 12.5 15.0 9.4 5.4 8.1 15.0 5.4 6.0 7.1 6.6 8.4 4.7 12.5 15.0 9.8 15.0 5.0 1.2 1.5 3.6 5.5 14.4 15.0 15.0 14.2 6.6 2.6 1.5 0.8 1.1 1.1 1.2 1.0 0.7 0.7 0.2
13.0 3.3 14.5 9.2 3.5 10.2 14.5 15.0 4.4 8.2 15.0 15.0 7.4 4.4 14.3 14.5 15.0 15.0 6.3 6.9 15.0 14.6 1.3 2.8 10.2 15.0 15.0 15.0 15.0 14.1 1.8 2.8 4.8 6.1 4.6 6.7 14.5 15.0 15.0 15.0 15.0 14.1 4.4 1.3 2.1 2.7 2.4 2.3 3.5 2.2 0.9 1.1 1.0 0.4
15.0 15.0 15.0 15.0 15.0 15.0 15.0 15.0 15.0 14.1 15.0 15.0 15.0 7.7 6.5 3.8 15.0 15.0 15.0 15.0 15.0 15.0 15.0 15.0 15.0 15.0 15.0 15.0 15.0 13.9 4.1 2.4 3.1 1.6 1.9 1.0 0.7 0.2 0.2 0.1 0.2 0.6 2.1 2.1 1.2 0.6 0.3 0.4 0.9 2.6 1.8 1.0 1.0 0.7